Location: Miles
(41.4492°N, 81.6087°W)
Time: 01:19:10
(UTC+00:00)

Courier 1B Rocket - Pass Details

Date: 13 September 2024
Orbit: 920 x 1201 km, 28.3° (Epoch: 15 October)

Event Time Altitude Azimuth Distance (km) Brightness Sun altitude
Rises 02:18:03 0° 257° (WSW) 3,968 8.8 -28.5°
Reaches altitude 10° 02:21:32 10° 243° (WSW) 3,048 7.9 -29.0°
Enters shadow 02:26:20 21° 203° (SSW) 2,362 6.8 -29.7°
Maximum altitude 02:26:57 21° 197° (SSW) 2,355 - -29.8°
Drops below altitude 10° 02:32:28 10° 151° (SSE) 3,120 - -30.6°
Sets 02:36:06 0° 137° (SE) 4,087 - -31.2°
